Location: Winthrop
(48.4780°N, 120.1850°W)
Time: 04:01:03
(UTC-08:00)

Vanguard 1 Rocket - Pass Details

Date: 30 November 2023
Orbit: 654 x 4218 km, 34.3° (Epoch: 24 February)

Event Time Altitude Azimuth Distance (km) Brightness Sun altitude
Rises 07:08:05 0° 240° (WSW) 7,363 11.7 -4.0°
Reaches altitude 10° 07:14:16 10° 233° (SW) 5,767 11.3 -3.1°
Maximum altitude 07:27:25 35° 177° (S) 2,747 10.3 -1.2°
Drops below altitude 10° 07:34:56 10° 115° (ESE) 3,287 12.3 -0.2°
Sets 07:37:25 0° 105° (ESE) 3,943 12.4 0.2°
